CAPE
nan nan nan nan nan nan nan nan nan nan nan nan nan nan nan nan nan nan nan nan nan nan nan nan nan nan nan nan 0 0 0 0 1 1 3 5 7 7 7 5 5 4 3 3 3 2 1 1 1 1 0 nan nan nan nan nan nan 0 1 2 2 5 8 10 10 14 15 16 17 17 15 13 7 7 2 1 1 1 2 1 1 2 4 6 6 4
nan nan nan nan nan nan nan nan nan nan nan nan nan nan nan nan nan nan nan nan nan nan nan nan nan nan nan nan nan nan nan nan 1 1 3 4 5 5 5 5 5 5 4 4 4 3 2 2 2 1 0 0 nan nan nan nan nan nan nan nan nan 0 1 3 3 4 7 8 8 8 9 10 7 7 3 2 3 3 3 2 2 0 3 8 8 7
nan nan nan nan nan nan nan nan nan nan nan nan nan nan nan nan nan nan nan nan nan nan nan nan nan nan nan nan nan nan nan 0 1 1 2 4 3 3 4 4 4 7 5 4 4 3 3 3 3 2 1 0 nan nan nan nan nan nan nan nan nan nan nan nan nan nan nan 0 0 0 1 3 4 4 4 3 6 6 6 5 5 2 5 9 9 11
nan nan nan nan nan nan nan nan nan nan nan nan nan nan nan nan nan nan nan nan nan nan nan nan nan nan nan nan nan nan nan 0 1 1 2 3 3 3 3 5 5 6 6 5 5 4 3 3 3 1 1 0 nan nan nan nan nan nan nan nan nan nan nan nan nan nan nan nan nan nan nan nan 2 2 5 6 7 7 11 9 9 6 6 9 9 12
nan nan nan nan nan nan nan nan nan nan nan nan nan nan nan nan nan nan nan nan nan nan nan nan nan nan nan nan nan nan nan 0 0 0 1 1 3 3 3 5 5 6 5 5 5 3 3 1 1 1 0 nan nan nan nan nan nan nan nan nan nan nan nan nan nan nan nan nan nan nan nan nan nan nan 3 6 6 6 9 11 11 9 10 10 10 15
nan nan nan nan nan nan nan nan nan nan nan nan nan nan nan nan nan nan nan nan nan nan nan nan nan nan nan nan nan nan nan nan nan nan nan 0 2 2 3 5 5 5 5 3 3 2 1 0 0 nan nan nan nan nan nan nan nan nan nan nan nan nan nan nan nan nan nan nan nan nan nan nan nan nan nan 2 4 4 8 10 10 13 14 15 15 17
nan nan nan nan nan nan nan nan nan nan nan nan nan nan nan nan nan nan nan nan nan nan nan nan nan nan nan nan nan nan nan nan nan nan nan nan 0 0 1 2 2 2 2 0 0 nan nan nan nan nan nan nan nan nan nan nan nan nan nan nan nan nan nan nan nan nan nan nan nan nan nan nan nan nan nan nan 1 1 4 9 9 12 16 18 18 18
nan nan nan nan nan nan nan nan 0 0 nan nan nan nan nan nan nan nan nan nan nan nan nan nan nan nan nan nan nan nan nan nan nan nan nan nan nan nan nan nan nan nan nan nan nan nan nan nan nan nan nan nan nan nan 0 nan nan nan nan nan nan nan nan nan nan nan nan nan nan nan nan nan nan nan nan nan nan nan nan 0 0 4 9 13 13 16
nan nan nan nan nan nan nan nan nan nan nan nan nan nan nan nan nan nan nan nan nan nan nan nan nan nan nan nan nan nan nan nan nan nan nan nan nan nan nan nan nan nan nan nan nan nan nan nan nan nan nan nan nan nan nan nan nan nan nan nan nan nan nan nan nan nan nan nan nan nan nan nan nan nan nan nan nan nan nan nan nan 0 3 8 8 12
nan nan nan nan nan nan nan nan nan nan nan nan nan nan nan nan nan nan nan nan nan nan nan nan nan nan nan nan nan nan nan nan nan nan nan nan nan nan nan nan nan nan nan nan nan nan nan nan nan nan nan nan nan nan nan nan nan nan nan nan nan nan nan nan nan nan nan nan nan nan nan nan nan nan nan nan nan nan nan nan nan nan 0 3 3 6
nan nan nan nan nan nan nan nan nan nan nan nan nan nan nan nan nan nan nan nan nan nan nan nan nan nan nan nan nan nan nan nan nan nan nan nan nan nan nan nan nan nan nan nan nan nan nan nan nan nan nan nan nan nan nan nan nan nan nan nan nan nan nan nan nan nan nan 0 0 0 nan nan nan nan nan nan nan nan nan nan nan nan nan 1 1 3
nan nan nan nan nan nan nan nan nan nan nan nan nan nan nan nan nan nan nan nan nan nan nan nan nan nan nan nan nan nan nan nan nan nan nan nan nan nan nan nan nan nan nan nan nan nan nan nan nan nan nan nan nan nan nan nan nan nan nan nan nan nan nan nan nan nan 0 1 1 1 0 0 nan nan nan nan nan nan nan nan nan nan nan 0 0 2
nan nan nan nan nan nan nan nan nan nan nan nan nan nan nan nan nan nan nan nan nan nan nan nan nan nan nan nan nan nan nan nan nan nan nan nan nan nan nan nan nan nan nan nan nan nan nan nan nan nan nan nan nan nan nan nan nan nan nan nan nan nan nan nan nan nan 0 1 2 2 2 2 1 1 1 nan nan nan nan nan nan nan nan 0 0 2
nan nan nan nan nan nan nan nan nan nan nan nan nan nan nan nan nan nan nan nan nan nan nan nan nan nan nan nan nan nan nan nan nan nan nan nan nan nan nan nan nan nan nan nan nan nan nan nan nan nan nan nan nan nan nan nan nan nan nan nan nan 0 0 0 0 0 1 2 2 2 1 2 2 2 2 2 2 2 1 1 1 1 1 1 1 2
nan nan nan nan nan nan nan nan nan nan nan nan nan nan nan nan nan nan nan nan nan nan nan nan nan nan nan nan nan nan nan nan nan nan nan nan nan nan nan nan nan nan nan nan nan nan nan nan nan nan nan nan nan nan nan nan nan nan nan 0 0 1 1 1 1 1 2 2 2 2 2 3 3 3 3 2 2 2 2 1 1 2 4 4 4 4
nan nan nan nan nan nan nan nan nan nan nan nan nan nan nan nan nan nan nan nan nan nan nan nan nan nan nan nan nan nan nan nan nan nan nan nan nan nan nan nan nan nan nan nan nan nan nan nan nan nan nan nan nan nan nan nan nan nan 0 1 1 1 2 3 3 3 3 2 2 2 2 3 4 4 5 4 3 3 2 2 2 4 6 8 8 9
nan nan nan nan nan nan nan nan nan nan nan nan nan nan nan nan nan nan nan nan nan nan nan nan nan nan nan nan nan nan nan nan nan nan nan nan nan nan nan nan nan nan nan nan nan nan nan nan nan nan nan nan nan nan nan nan nan nan 0 1 1 1 2 2 2 3 3 3 2 2 3 3 5 5 6 5 4 4 3 4 4 5 7 10 10 15
nan nan nan nan nan nan nan nan nan nan nan nan nan nan nan nan nan nan nan nan nan nan nan nan nan nan nan nan nan nan nan nan nan nan nan nan nan nan nan nan nan nan nan nan nan nan nan nan nan nan nan nan nan nan nan nan nan nan 0 1 1 1 1 2 2 2 2 3 3 3 3 3 4 4 6 7 6 6 5 5 5 5 7 9 9 12
nan nan nan nan nan nan nan nan nan nan nan nan nan nan nan nan nan nan nan nan nan nan nan nan nan nan nan nan nan nan nan nan nan nan nan nan nan nan nan nan nan nan nan nan nan nan nan nan nan nan nan nan nan nan nan nan nan nan 0 0 0 1 1 0 0 0 2 2 3 3 3 4 4 4 5 6 7 7 6 6 6 7 6 8 8 11
nan nan nan nan nan nan nan nan nan nan nan nan nan nan nan nan nan nan nan nan nan nan nan nan nan nan nan nan nan nan nan nan nan nan nan nan nan nan nan nan nan nan nan nan nan nan nan nan nan nan nan nan nan nan nan nan nan nan nan 0 0 0 nan nan nan 0 2 2 3 3 3 3 4 4 6 7 8 8 7 8 8 7 8 8 8 10
nan nan nan nan nan nan nan nan nan nan nan nan nan nan nan nan nan nan nan nan nan nan nan nan nan nan nan nan nan nan nan nan nan nan nan nan nan nan nan nan nan nan nan nan nan nan nan nan nan nan nan nan nan nan nan nan nan nan nan nan nan nan nan nan nan 0 2 3 3 3 3 4 6 6 8 8 9 9 9 10 10 10 9 9 9 10
nan nan nan nan nan nan nan nan nan nan nan nan nan nan nan nan nan nan nan nan nan nan nan nan nan nan nan nan nan nan nan nan nan nan nan nan nan nan nan nan nan nan nan nan nan nan nan nan nan nan nan nan nan nan nan nan nan nan nan nan nan nan nan nan nan 0 1 2 3 3 2 3 4 4 5 7 9 9 11 13 13 12 15 14 14 12
nan nan nan nan nan nan nan nan nan nan nan nan nan nan nan nan nan nan nan nan nan nan nan nan nan nan nan nan nan nan nan nan nan nan nan nan nan nan nan nan nan nan nan nan nan nan nan nan nan nan nan nan nan nan nan nan nan nan nan nan nan nan nan nan nan 0 0 1 2 2 2 2 2 2 3 4 5 5 9 11 11 16 19 18 18 17
nan nan nan nan nan nan nan nan nan nan nan nan nan nan nan nan nan nan nan nan nan nan nan nan nan nan nan nan nan nan nan nan nan nan nan nan nan nan nan nan nan nan nan nan nan nan nan nan nan nan nan nan nan nan nan nan nan nan nan nan nan nan nan nan nan nan 1 1 2 2 2 2 2 2 2 3 4 4 5 7 7 10 16 19 19 21
nan nan nan nan nan nan nan nan nan nan nan nan nan nan nan nan nan nan nan nan nan nan nan nan nan nan nan nan nan nan nan nan nan nan nan nan nan nan nan nan nan nan nan nan nan nan nan nan nan nan nan nan nan nan nan nan nan nan nan nan nan nan nan 0 0 0 1 2 2 2 2 3 3 3 3 3 3 3 4 5 5 6 10 16 16 19
nan nan nan nan nan nan nan nan nan nan nan nan nan nan nan nan nan nan nan nan nan nan nan nan nan nan nan nan nan nan nan nan nan nan nan nan nan nan nan nan nan nan nan nan nan nan nan nan nan nan nan nan nan nan nan nan nan nan nan nan nan nan 0 0 0 1 2 2 2 2 3 3 3 3 3 3 3 3 4 4 4 5 7 9 9 15
nan nan nan nan nan nan nan nan nan nan nan nan nan nan nan nan nan nan nan nan nan nan nan nan nan nan nan nan nan nan nan nan nan nan nan nan nan nan nan nan nan nan nan nan nan nan nan nan nan nan nan nan nan nan nan nan nan nan nan nan nan nan nan 0 0 0 1 1 1 1 2 2 3 3 3 3 4 4 4 4 4 5 6 6 6 10
nan nan nan nan nan nan nan nan nan nan nan nan nan nan nan nan nan nan nan nan nan nan nan nan nan nan nan nan nan nan nan nan nan nan nan nan nan nan nan nan nan nan nan nan nan nan nan nan nan nan nan nan nan nan nan nan nan nan nan nan nan nan nan nan nan nan nan nan 0 0 1 1 2 2 2 2 3 3 3 4 4 5 5 4 4 0
1 1 2 2 2 2 2 2 2 2 2 1 nan nan nan nan nan nan nan nan nan nan nan nan nan nan nan nan nan nan nan nan nan nan nan nan nan nan nan nan nan nan nan nan nan nan nan nan nan nan nan nan nan nan nan nan nan nan nan nan nan nan nan nan nan nan nan nan 0 0 0 1 1 1 1 1 2 2 3 4 4 4 3 1 1 nan
nan nan nan nan nan nan nan nan 1 1 8 11 10 10 nan nan nan nan nan nan nan nan nan nan nan nan nan nan nan nan nan nan nan nan nan nan nan nan nan nan nan nan nan nan nan nan nan nan nan nan nan nan nan nan nan nan nan nan nan nan nan nan nan nan nan nan nan 0 0 0 0 0 0 0 0 1 1 1 2 4 4 3 1 nan nan nan
nan nan nan nan nan nan nan nan 0 0 0 7 7 7 nan nan nan nan nan nan nan nan nan nan nan nan nan nan nan nan nan nan nan nan nan nan nan nan nan nan nan nan nan nan nan nan nan nan nan nan nan nan nan nan nan nan nan nan nan nan nan nan nan nan nan nan nan nan nan nan nan 0 0 0 0 0 1 1 2 3 3 3 nan nan nan nan
nan nan nan nan nan nan nan nan nan nan nan nan nan nan nan nan nan nan nan nan nan nan nan nan nan nan nan nan nan nan nan nan nan nan nan nan nan nan nan nan nan nan nan nan nan nan nan nan nan nan nan nan nan nan nan nan nan nan nan nan nan nan nan nan nan nan nan nan nan nan nan nan nan nan nan nan 0 0 2 3 3 3 nan nan nan nan
nan nan nan nan nan nan nan nan nan nan nan nan nan nan nan nan nan nan nan nan nan nan nan nan nan nan nan nan nan nan nan nan nan nan nan nan nan nan nan nan nan nan nan nan nan nan nan nan nan nan nan nan nan nan nan nan nan nan nan nan nan nan nan nan nan nan nan nan nan nan nan nan nan nan nan nan 1 1 1 3 3 4 2 nan nan nan
nan nan nan nan nan nan nan nan nan nan nan nan nan nan nan nan nan nan nan nan nan nan nan nan nan nan nan nan nan nan nan nan nan nan nan nan nan nan nan nan nan nan nan nan nan nan nan nan nan nan nan nan nan nan nan nan nan nan nan nan nan nan nan nan nan nan nan nan nan nan nan nan nan nan nan nan 0 0 2 4 4 6 6 0 0 nan
nan nan nan nan nan nan nan nan nan nan nan nan nan nan nan nan nan nan nan nan nan nan nan nan nan nan nan nan nan nan nan nan nan nan nan nan nan nan nan nan nan nan nan nan nan nan nan nan nan nan nan nan nan nan nan nan nan nan nan nan nan nan nan nan nan nan nan nan nan nan nan nan nan nan nan nan nan nan 3 4 4 6 6 9 9 3
nan nan nan nan nan nan nan nan nan nan nan nan nan nan nan nan nan nan nan nan nan nan nan nan nan nan nan nan nan nan nan nan nan nan nan nan nan nan nan nan nan nan nan nan nan nan nan nan nan nan nan nan nan nan nan nan nan nan nan nan nan nan nan nan nan nan nan nan nan nan nan nan nan nan nan nan nan nan 0 1 1 3 4 6 6 5
nan nan nan nan nan nan nan nan nan nan nan nan nan nan nan nan nan nan nan nan nan nan nan nan nan nan nan nan nan nan nan nan nan nan nan nan nan nan nan nan nan nan nan nan nan nan nan nan nan nan nan nan nan nan nan nan nan nan nan nan nan nan nan nan nan nan nan nan nan nan nan nan nan nan nan nan nan nan nan nan nan nan 1 2 2 2
nan nan nan nan nan nan nan nan nan nan nan nan nan nan nan nan nan nan nan nan nan nan nan nan nan nan nan nan nan nan nan nan nan nan nan nan nan nan nan nan nan nan nan nan nan nan nan nan nan nan nan nan nan nan nan nan nan nan nan nan nan nan nan nan nan nan nan nan nan nan nan nan nan nan nan nan nan nan nan nan nan nan nan nan nan nan
nan nan nan nan nan nan nan nan nan nan nan nan nan nan nan nan nan nan nan nan nan nan nan nan nan nan nan nan nan nan nan nan nan nan nan nan nan nan nan nan nan nan nan nan nan nan nan nan nan nan nan nan nan nan nan nan nan nan nan nan nan nan nan nan nan nan nan nan nan nan nan nan nan nan nan nan nan nan nan nan nan nan nan nan nan nan
nan nan nan nan nan nan nan nan nan nan nan nan nan nan nan nan nan nan nan nan nan nan nan nan nan nan nan nan nan nan nan nan nan nan nan nan nan nan nan nan nan nan nan nan nan nan nan nan nan nan nan nan nan nan nan nan nan nan nan nan nan nan nan nan nan nan nan nan nan nan nan nan nan nan nan nan nan nan nan nan nan nan nan nan nan nan
nan nan nan nan nan nan nan nan nan nan nan nan nan nan nan nan nan nan nan nan nan nan nan nan nan nan nan nan nan nan nan nan nan nan nan nan nan nan nan nan nan nan nan nan nan nan nan nan nan nan nan nan nan nan nan nan nan nan nan nan nan nan nan nan nan nan nan nan nan nan nan nan nan nan nan nan nan nan nan nan nan nan nan nan nan nan
nan nan nan nan nan nan nan nan nan nan nan nan nan nan nan nan nan nan nan nan nan nan nan nan nan nan nan nan nan nan nan nan nan nan nan nan nan nan nan nan nan nan nan nan nan nan nan nan nan nan nan nan nan nan nan nan nan nan nan nan nan nan nan nan nan nan nan nan nan nan nan nan nan nan nan nan nan nan nan nan nan nan nan nan nan nan
nan nan nan nan nan nan nan nan nan nan nan nan nan nan nan nan nan nan nan nan nan nan nan nan nan nan nan nan nan nan nan nan nan nan nan nan nan nan nan nan nan nan nan nan nan nan nan nan nan nan nan nan nan nan nan nan nan nan nan nan nan nan nan nan nan nan nan nan nan nan nan nan nan nan nan nan nan nan nan nan nan nan nan nan nan nan
nan nan nan nan nan nan nan nan nan nan nan nan nan nan nan nan nan nan nan nan nan nan nan nan nan nan nan nan nan nan nan nan nan nan nan nan nan nan nan nan nan nan nan nan nan nan nan nan nan nan nan nan nan nan nan nan nan nan nan nan nan nan nan nan nan nan nan nan nan nan nan nan nan nan nan nan nan nan nan nan nan nan nan nan nan nan
nan nan nan nan nan nan nan nan nan nan nan nan nan nan nan nan nan nan nan nan nan nan nan nan nan nan nan nan nan nan nan nan nan nan nan nan 0 0 nan nan nan nan nan nan nan nan nan nan nan nan nan nan nan nan nan nan nan nan nan nan nan nan nan nan nan nan nan nan nan nan nan nan nan nan nan nan nan nan nan nan nan nan nan nan nan nan
nan nan nan nan nan nan nan nan nan nan nan nan nan nan nan nan nan nan nan nan nan nan nan nan nan nan nan nan nan nan nan nan nan nan nan nan nan nan nan nan nan nan nan nan nan nan nan nan nan nan nan nan nan nan nan nan nan nan nan nan nan nan nan nan nan nan nan nan nan nan nan nan nan nan nan nan nan nan nan nan nan nan nan nan nan nan
nan nan nan nan nan nan nan nan nan nan nan nan nan nan nan nan nan nan nan nan nan nan nan nan nan nan nan nan nan nan nan nan nan nan nan nan nan nan nan nan nan nan nan nan nan nan nan nan nan nan nan nan nan nan nan nan nan nan nan nan nan nan nan nan nan nan nan nan nan nan nan nan nan nan nan nan nan nan nan nan nan nan nan nan nan nan
nan nan nan nan nan nan nan nan nan nan nan nan nan nan nan nan nan nan nan nan nan nan nan nan nan nan nan nan nan nan nan nan nan nan nan nan nan nan nan nan nan nan nan nan nan nan nan nan nan nan nan nan nan nan nan nan nan nan nan nan nan nan nan nan nan nan nan nan nan nan nan nan nan nan nan nan nan nan nan nan nan nan nan nan nan nan
nan nan nan nan nan nan nan nan nan nan nan nan nan nan nan nan nan nan nan nan nan nan nan nan nan nan nan nan nan nan nan nan nan nan nan nan nan nan nan nan nan nan nan nan nan nan nan nan nan nan nan nan nan nan nan nan nan nan nan nan nan nan nan nan nan nan nan nan nan nan nan nan nan nan nan nan nan nan nan nan nan nan nan nan nan nan
nan nan nan nan nan nan nan nan nan nan nan nan nan nan nan nan nan nan nan nan nan nan nan nan nan nan nan nan nan nan nan nan nan nan nan nan nan nan nan nan nan nan nan nan nan nan nan nan nan nan nan nan nan nan nan nan nan nan nan nan nan nan nan nan nan nan nan nan nan nan nan nan nan nan nan nan nan nan nan nan nan nan nan nan nan nan
nan nan nan nan nan nan nan nan nan nan nan nan nan nan nan nan nan nan nan nan nan nan nan nan nan nan nan nan nan nan nan nan nan nan nan nan nan nan nan nan nan nan nan nan nan nan nan nan nan nan 0 11 0 0 nan nan nan nan nan nan nan nan nan nan nan nan nan nan nan nan nan nan nan nan nan nan nan nan nan nan nan nan nan nan nan nan
CIN
nan nan nan nan nan nan nan nan nan nan nan nan nan nan nan nan nan nan nan nan nan nan nan nan nan nan nan nan -1 -1 -0 -0 -0 -0 -0 -0 -0 -0 -0 -0 -0 -0 -0 -0 -0 -0 -0 -0 -0 -0 -0 nan nan nan nan nan nan -0 -0 -0 -0 -0 -0 -0 -0 -0 -0 -0 -0 -0 -0 -0 -0 -0 -0 -0 -2 -2 -1 -0 -0 -0 -0 -0 -0 -0
nan nan nan nan nan nan nan nan nan nan nan nan nan nan nan nan nan nan nan nan nan nan nan nan nan nan nan nan nan nan nan nan -0 -0 -0 -0 -0 -0 -0 -0 -0 -0 -0 -0 -0 -0 -0 -0 -0 -0 -0 -0 nan nan nan nan nan nan nan nan nan -0 -0 -0 -0 -0 -0 -0 -0 -0 -0 -0 -0 -0 -0 -0 -0 -0 -0 -0 -0 -0 -0 -0 -0 -0
nan nan nan nan nan nan nan nan nan nan nan nan nan nan nan nan nan nan nan nan nan nan nan nan nan nan nan nan nan nan nan -0 -0 -0 -0 -0 -0 -0 -0 -0 -0 -0 -0 -0 -0 -0 -0 -0 -0 -0 -0 -0 nan nan nan nan nan nan nan nan nan nan nan nan nan nan nan -0 -0 -0 -0 -0 -0 -0 -0 -0 -0 -0 -0 -0 -0 -0 -0 -0 -0 -0
nan nan nan nan nan nan nan nan nan nan nan nan nan nan nan nan nan nan nan nan nan nan nan nan nan nan nan nan nan nan nan -0 -0 -0 -0 -0 -0 -0 -0 -0 -0 -0 -0 -0 -0 -0 -0 -0 -0 -0 -0 -0 nan nan nan nan nan nan nan nan nan nan nan nan nan nan nan nan nan nan nan nan -0 -0 -0 -0 -0 -0 -0 -0 -0 -0 -0 -0 -0 -0
nan nan nan nan nan nan nan nan nan nan nan nan nan nan nan nan nan nan nan nan nan nan nan nan nan nan nan nan nan nan nan -0 -0 -0 -0 -0 -0 -0 -0 -0 -0 -0 -0 -0 -0 -0 -0 -0 -0 -0 -0 nan nan nan nan nan nan nan nan nan nan nan nan nan nan nan nan nan nan nan nan nan nan nan -0 -0 -0 -0 -0 -0 -0 -0 -0 -0 -0 -0
nan nan nan nan nan nan nan nan nan nan nan nan nan nan nan nan nan nan nan nan nan nan nan nan nan nan nan nan nan nan nan nan nan nan nan -0 -0 -0 -0 -0 -0 -0 -0 -0 -0 -0 -0 -0 -0 nan nan nan nan nan nan nan nan nan nan nan nan nan nan nan nan nan nan nan nan nan nan nan nan nan nan -0 -0 -0 -0 -0 -0 -0 -0 -0 -0 -0
nan nan nan nan nan nan nan nan nan nan nan nan nan nan nan nan nan nan nan nan nan nan nan nan nan nan nan nan nan nan nan nan nan nan nan nan -0 -0 -0 -0 -0 -0 -0 -0 -0 nan nan nan nan nan nan nan nan nan nan nan nan nan nan nan nan nan nan nan nan nan nan nan nan nan nan nan nan nan nan nan -0 -0 -0 -0 -0 -0 -0 -0 -0 -0
nan nan nan nan nan nan nan nan -0 -0 nan nan nan nan nan nan nan nan nan nan nan nan nan nan nan nan nan nan nan nan nan nan nan nan nan nan nan nan nan nan nan nan nan nan nan nan nan nan nan nan nan nan nan nan -0 nan nan nan nan nan nan nan nan nan nan nan nan nan nan nan nan nan nan nan nan nan nan nan nan -0 -0 -0 -0 -0 -0 -0
nan nan nan nan nan nan nan nan nan nan nan nan nan nan nan nan nan nan nan nan nan nan nan nan nan nan nan nan nan nan nan nan nan nan nan nan nan nan nan nan nan nan nan nan nan nan nan nan nan nan nan nan nan nan nan nan nan nan nan nan nan nan nan nan nan nan nan nan nan nan nan nan nan nan nan nan nan nan nan nan nan -0 -0 -0 -0 -0
nan nan nan nan nan nan nan nan nan nan nan nan nan nan nan nan nan nan nan nan nan nan nan nan nan nan nan nan nan nan nan nan nan nan nan nan nan nan nan nan nan nan nan nan nan nan nan nan nan nan nan nan nan nan nan nan nan nan nan nan nan nan nan nan nan nan nan nan nan nan nan nan nan nan nan nan nan nan nan nan nan nan -0 -0 -0 -0
nan nan nan nan nan nan nan nan nan nan nan nan nan nan nan nan nan nan nan nan nan nan nan nan nan nan nan nan nan nan nan nan nan nan nan nan nan nan nan nan nan nan nan nan nan nan nan nan nan nan nan nan nan nan nan nan nan nan nan nan nan nan nan nan nan nan nan -0 -0 -0 nan nan nan nan nan nan nan nan nan nan nan nan nan -0 -0 -0
nan nan nan nan nan nan nan nan nan nan nan nan nan nan nan nan nan nan nan nan nan nan nan nan nan nan nan nan nan nan nan nan nan nan nan nan nan nan nan nan nan nan nan nan nan nan nan nan nan nan nan nan nan nan nan nan nan nan nan nan nan nan nan nan nan nan -0 -0 -0 -0 -0 -0 nan nan nan nan nan nan nan nan nan nan nan -0 -0 -0
nan nan nan nan nan nan nan nan nan nan nan nan nan nan nan nan nan nan nan nan nan nan nan nan nan nan nan nan nan nan nan nan nan nan nan nan nan nan nan nan nan nan nan nan nan nan nan nan nan nan nan nan nan nan nan nan nan nan nan nan nan nan nan nan nan nan -0 -0 -0 -0 -0 -0 -0 -0 -0 nan nan nan nan nan nan nan nan -0 -0 -0
nan nan nan nan nan nan nan nan nan nan nan nan nan nan nan nan nan nan nan nan nan nan nan nan nan nan nan nan nan nan nan nan nan nan nan nan nan nan nan nan nan nan nan nan nan nan nan nan nan nan nan nan nan nan nan nan nan nan nan nan nan -0 -0 -0 -0 -0 -0 -0 -0 -0 -0 -0 -0 -0 -0 -0 -0 -0 -0 -0 -0 -0 -0 -0 -0 -0
nan nan nan nan nan nan nan nan nan nan nan nan nan nan nan nan nan nan nan nan nan nan nan nan nan nan nan nan nan nan nan nan nan nan nan nan nan nan nan nan nan nan nan nan nan nan nan nan nan nan nan nan nan nan nan nan nan nan nan -0 -0 -0 -0 -0 -0 -0 -0 -0 -0 -0 -0 -0 -0 -0 -0 -0 -0 -0 -0 -0 -0 -0 -0 -0 -0 -0
nan nan nan nan nan nan nan nan nan nan nan nan nan nan nan nan nan nan nan nan nan nan nan nan nan nan nan nan nan nan nan nan nan nan nan nan nan nan nan nan nan nan nan nan nan nan nan nan nan nan nan nan nan nan nan nan nan nan -0 -0 -0 -0 -0 -0 -0 -0 -0 -0 -0 -0 -0 -0 -0 -0 -0 -0 -0 -0 -0 -0 -0 -0 -0 -0 -0 -0
nan nan nan nan nan nan nan nan nan nan nan nan nan nan nan nan nan nan nan nan nan nan nan nan nan nan nan nan nan nan nan nan nan nan nan nan nan nan nan nan nan nan nan nan nan nan nan nan nan nan nan nan nan nan nan nan nan nan -0 -0 -0 -0 -0 -0 -0 -0 -0 -0 -0 -0 -0 -0 -0 -0 -0 -0 -0 -0 -0 -0 -0 -0 -0 -0 -0 -0
nan nan nan nan nan nan nan nan nan nan nan nan nan nan nan nan nan nan nan nan nan nan nan nan nan nan nan nan nan nan nan nan nan nan nan nan nan nan nan nan nan nan nan nan nan nan nan nan nan nan nan nan nan nan nan nan nan nan -0 -0 -0 -0 -0 -0 -0 -0 -0 -0 -0 -0 -0 -0 -0 -0 -0 -0 -0 -0 -0 -0 -0 -0 -0 -0 -0 -0
nan nan nan nan nan nan nan nan nan nan nan nan nan nan nan nan nan nan nan nan nan nan nan nan nan nan nan nan nan nan nan nan nan nan nan nan nan nan nan nan nan nan nan nan nan nan nan nan nan nan nan nan nan nan nan nan nan nan -0 -0 -0 -0 -0 -0 -0 -0 -0 -0 -0 -0 -0 -0 -0 -0 -0 -0 -0 -0 -0 -0 -0 -0 -0 -0 -0 -0
nan nan nan nan nan nan nan nan nan nan nan nan nan nan nan nan nan nan nan nan nan nan nan nan nan nan nan nan nan nan nan nan nan nan nan nan nan nan nan nan nan nan nan nan nan nan nan nan nan nan nan nan nan nan nan nan nan nan nan -0 -0 -0 nan nan nan -0 -0 -0 -0 -0 -0 -0 -0 -0 -0 -0 -0 -0 -0 -0 -0 -0 -0 -0 -0 -0
nan nan nan nan nan nan nan nan nan nan nan nan nan nan nan nan nan nan nan nan nan nan nan nan nan nan nan nan nan nan nan nan nan nan nan nan nan nan nan nan nan nan nan nan nan nan nan nan nan nan nan nan nan nan nan nan nan nan nan nan nan nan nan nan nan -0 -0 -0 -0 -0 -0 -0 -0 -0 -0 -0 -0 -0 -0 -0 -0 -0 -0 -0 -0 -0
nan nan nan nan nan nan nan nan nan nan nan nan nan nan nan nan nan nan nan nan nan nan nan nan nan nan nan nan nan nan nan nan nan nan nan nan nan nan nan nan nan nan nan nan nan nan nan nan nan nan nan nan nan nan nan nan nan nan nan nan nan nan nan nan nan -0 -0 -0 -0 -0 -0 -0 -0 -0 -0 -0 -0 -0 -0 -0 -0 -0 -0 -0 -0 -0
nan nan nan nan nan nan nan nan nan nan nan nan nan nan nan nan nan nan nan nan nan nan nan nan nan nan nan nan nan nan nan nan nan nan nan nan nan nan nan nan nan nan nan nan nan nan nan nan nan nan nan nan nan nan nan nan nan nan nan nan nan nan nan nan nan -0 -0 -0 -0 -0 -0 -0 -0 -0 -0 -0 -0 -0 -0 -0 -0 -0 -0 -0 -0 -0
nan nan nan nan nan nan nan nan nan nan nan nan nan nan nan nan nan nan nan nan nan nan nan nan nan nan nan nan nan nan nan nan nan nan nan nan nan nan nan nan nan nan nan nan nan nan nan nan nan nan nan nan nan nan nan nan nan nan nan nan nan nan nan nan nan nan -0 -0 -0 -0 -0 -0 -0 -0 -0 -0 -0 -0 -0 -0 -0 -0 -0 -0 -0 -0
nan nan nan nan nan nan nan nan nan nan nan nan nan nan nan nan nan nan nan nan nan nan nan nan nan nan nan nan nan nan nan nan nan nan nan nan nan nan nan nan nan nan nan nan nan nan nan nan nan nan nan nan nan nan nan nan nan nan nan nan nan nan nan -0 -0 -0 -0 -0 -0 -0 -0 -0 -0 -0 -0 -0 -0 -0 -0 -0 -0 -0 -0 -0 -0 -0
nan nan nan nan nan nan nan nan nan nan nan nan nan nan nan nan nan nan nan nan nan nan nan nan nan nan nan nan nan nan nan nan nan nan nan nan nan nan nan nan nan nan nan nan nan nan nan nan nan nan nan nan nan nan nan nan nan nan nan nan nan nan -0 -0 -0 -0 -0 -0 -0 -0 -0 -0 -0 -0 -0 -0 -0 -0 -0 -0 -0 -0 -0 -0 -0 -0
nan nan nan nan nan nan nan nan nan nan nan nan nan nan nan nan nan nan nan nan nan nan nan nan nan nan nan nan nan nan nan nan nan nan nan nan nan nan nan nan nan nan nan nan nan nan nan nan nan nan nan nan nan nan nan nan nan nan nan nan nan nan nan -0 -0 -0 -0 -0 -0 -0 -0 -0 -0 -0 -0 -0 -0 -0 -0 -0 -0 -0 -0 -0 -0 -0
nan nan nan nan nan nan nan nan nan nan nan nan nan nan nan nan nan nan nan nan nan nan nan nan nan nan nan nan nan nan nan nan nan nan nan nan nan nan nan nan nan nan nan nan nan nan nan nan nan nan nan nan nan nan nan nan nan nan nan nan nan nan nan nan nan nan nan nan -0 -0 -0 -0 -0 -0 -0 -0 -0 -0 -0 -0 -0 -0 -0 -0 -0 -27
-0 -0 -0 -0 -0 -0 -0 -0 -0 -0 -0 -0 nan nan nan nan nan nan nan nan nan nan nan nan nan nan nan nan nan nan nan nan nan nan nan nan nan nan nan nan nan nan nan nan nan nan nan nan nan nan nan nan nan nan nan nan nan nan nan nan nan nan nan nan nan nan nan nan -0 -0 -0 -0 -0 -0 -0 -0 -0 -0 -0 -0 -0 -0 -0 -10 -10 nan
nan nan nan nan nan nan nan nan -9 -9 -0 -0 -0 -0 nan nan nan nan nan nan nan nan nan nan nan nan nan nan nan nan nan nan nan nan nan nan nan nan nan nan nan nan nan nan nan nan nan nan nan nan nan nan nan nan nan nan nan nan nan nan nan nan nan nan nan nan nan -0 -0 -0 -0 -0 -0 -0 -0 -0 -0 -0 -0 -0 -0 -0 -7 nan nan nan
nan nan nan nan nan nan nan nan -0 -0 -16 -0 -0 -0 nan nan nan nan nan nan nan nan nan nan nan nan nan nan nan nan nan nan nan nan nan nan nan nan nan nan nan nan nan nan nan nan nan nan nan nan nan nan nan nan nan nan nan nan nan nan nan nan nan nan nan nan nan nan nan nan nan -0 -0 -0 -0 -0 -0 -0 -0 -0 -0 -0 nan nan nan nan
nan nan nan nan nan nan nan nan nan nan nan nan nan nan nan nan nan nan nan nan nan nan nan nan nan nan nan nan nan nan nan nan nan nan nan nan nan nan nan nan nan nan nan nan nan nan nan nan nan nan nan nan nan nan nan nan nan nan nan nan nan nan nan nan nan nan nan nan nan nan nan nan nan nan nan nan -0 -0 -0 -0 -0 -0 nan nan nan nan
nan nan nan nan nan nan nan nan nan nan nan nan nan nan nan nan nan nan nan nan nan nan nan nan nan nan nan nan nan nan nan nan nan nan nan nan nan nan nan nan nan nan nan nan nan nan nan nan nan nan nan nan nan nan nan nan nan nan nan nan nan nan nan nan nan nan nan nan nan nan nan nan nan nan nan nan -0 -0 -0 -0 -0 -0 -5 nan nan nan
nan nan nan nan nan nan nan nan nan nan nan nan nan nan nan nan nan nan nan nan nan nan nan nan nan nan nan nan nan nan nan nan nan nan nan nan nan nan nan nan nan nan nan nan nan nan nan nan nan nan nan nan nan nan nan nan nan nan nan nan nan nan nan nan nan nan nan nan nan nan nan nan nan nan nan nan -0 -0 -0 -0 -0 -0 -0 -21 -21 nan
nan nan nan nan nan nan nan nan nan nan nan nan nan nan nan nan nan nan nan nan nan nan nan nan nan nan nan nan nan nan nan nan nan nan nan nan nan nan nan nan nan nan nan nan nan nan nan nan nan nan nan nan nan nan nan nan nan nan nan nan nan nan nan nan nan nan nan nan nan nan nan nan nan nan nan nan nan nan -0 -0 -0 -0 -0 -0 -0 -9
nan nan nan nan nan nan nan nan nan nan nan nan nan nan nan nan nan nan nan nan nan nan nan nan nan nan nan nan nan nan nan nan nan nan nan nan nan nan nan nan nan nan nan nan nan nan nan nan nan nan nan nan nan nan nan nan nan nan nan nan nan nan nan nan nan nan nan nan nan nan nan nan nan nan nan nan nan nan -1 -0 -0 -0 -0 -0 -0 -0
nan nan nan nan nan nan nan nan nan nan nan nan nan nan nan nan nan nan nan nan nan nan nan nan nan nan nan nan nan nan nan nan nan nan nan nan nan nan nan nan nan nan nan nan nan nan nan nan nan nan nan nan nan nan nan nan nan nan nan nan nan nan nan nan nan nan nan nan nan nan nan nan nan nan nan nan nan nan nan nan nan nan -0 -0 -0 -0
nan nan nan nan nan nan nan nan nan nan nan nan nan nan nan nan nan nan nan nan nan nan nan nan nan nan nan nan nan nan nan nan nan nan nan nan nan nan nan nan nan nan nan nan nan nan nan nan nan nan nan nan nan nan nan nan nan nan nan nan nan nan nan nan nan nan nan nan nan nan nan nan nan nan nan nan nan nan nan nan nan nan nan nan nan nan
nan nan nan nan nan nan nan nan nan nan nan nan nan nan nan nan nan nan nan nan nan nan nan nan nan nan nan nan nan nan nan nan nan nan nan nan nan nan nan nan nan nan nan nan nan nan nan nan nan nan nan nan nan nan nan nan nan nan nan nan nan nan nan nan nan nan nan nan nan nan nan nan nan nan nan nan nan nan nan nan nan nan nan nan nan nan
nan nan nan nan nan nan nan nan nan nan nan nan nan nan nan nan nan nan nan nan nan nan nan nan nan nan nan nan nan nan nan nan nan nan nan nan nan nan nan nan nan nan nan nan nan nan nan nan nan nan nan nan nan nan nan nan nan nan nan nan nan nan nan nan nan nan nan nan nan nan nan nan nan nan nan nan nan nan nan nan nan nan nan nan nan nan
nan nan nan nan nan nan nan nan nan nan nan nan nan nan nan nan nan nan nan nan nan nan nan nan nan nan nan nan nan nan nan nan nan nan nan nan nan nan nan nan nan nan nan nan nan nan nan nan nan nan nan nan nan nan nan nan nan nan nan nan nan nan nan nan nan nan nan nan nan nan nan nan nan nan nan nan nan nan nan nan nan nan nan nan nan nan
nan nan nan nan nan nan nan nan nan nan nan nan nan nan nan nan nan nan nan nan nan nan nan nan nan nan nan nan nan nan nan nan nan nan nan nan nan nan nan nan nan nan nan nan nan nan nan nan nan nan nan nan nan nan nan nan nan nan nan nan nan nan nan nan nan nan nan nan nan nan nan nan nan nan nan nan nan nan nan nan nan nan nan nan nan nan
nan nan nan nan nan nan nan nan nan nan nan nan nan nan nan nan nan nan nan nan nan nan nan nan nan nan nan nan nan nan nan nan nan nan nan nan nan nan nan nan nan nan nan nan nan nan nan nan nan nan nan nan nan nan nan nan nan nan nan nan nan nan nan nan nan nan nan nan nan nan nan nan nan nan nan nan nan nan nan nan nan nan nan nan nan nan
nan nan nan nan nan nan nan nan nan nan nan nan nan nan nan nan nan nan nan nan nan nan nan nan nan nan nan nan nan nan nan nan nan nan nan nan nan nan nan nan nan nan nan nan nan nan nan nan nan nan nan nan nan nan nan nan nan nan nan nan nan nan nan nan nan nan nan nan nan nan nan nan nan nan nan nan nan nan nan nan nan nan nan nan nan nan
nan nan nan nan nan nan nan nan nan nan nan nan nan nan nan nan nan nan nan nan nan nan nan nan nan nan nan nan nan nan nan nan nan nan nan nan -0 -0 nan nan nan nan nan nan nan nan nan nan nan nan nan nan nan nan nan nan nan nan nan nan nan nan nan nan nan nan nan nan nan nan nan nan nan nan nan nan nan nan nan nan nan nan nan nan nan nan
nan nan nan nan nan nan nan nan nan nan nan nan nan nan nan nan nan nan nan nan nan nan nan nan nan nan nan nan nan nan nan nan nan nan nan nan nan nan nan nan nan nan nan nan nan nan nan nan nan nan nan nan nan nan nan nan nan nan nan nan nan nan nan nan nan nan nan nan nan nan nan nan nan nan nan nan nan nan nan nan nan nan nan nan nan nan
nan nan nan nan nan nan nan nan nan nan nan nan nan nan nan nan nan nan nan nan nan nan nan nan nan nan nan nan nan nan nan nan nan nan nan nan nan nan nan nan nan nan nan nan nan nan nan nan nan nan nan nan nan nan nan nan nan nan nan nan nan nan nan nan nan nan nan nan nan nan nan nan nan nan nan nan nan nan nan nan nan nan nan nan nan nan
nan nan nan nan nan nan nan nan nan nan nan nan nan nan nan nan nan nan nan nan nan nan nan nan nan nan nan nan nan nan nan nan nan nan nan nan nan nan nan nan nan nan nan nan nan nan nan nan nan nan nan nan nan nan nan nan nan nan nan nan nan nan nan nan nan nan nan nan nan nan nan nan nan nan nan nan nan nan nan nan nan nan nan nan nan nan
nan nan nan nan nan nan nan nan nan nan nan nan nan nan nan nan nan nan nan nan nan nan nan nan nan nan nan nan nan nan nan nan nan nan nan nan nan nan nan nan nan nan nan nan nan nan nan nan nan nan nan nan nan nan nan nan nan nan nan nan nan nan nan nan nan nan nan nan nan nan nan nan nan nan nan nan nan nan nan nan nan nan nan nan nan nan
nan nan nan nan nan nan nan nan nan nan nan nan nan nan nan nan nan nan nan nan nan nan nan nan nan nan nan nan nan nan nan nan nan nan nan nan nan nan nan nan nan nan nan nan nan nan nan nan nan nan nan nan nan nan nan nan nan nan nan nan nan nan nan nan nan nan nan nan nan nan nan nan nan nan nan nan nan nan nan nan nan nan nan nan nan nan
nan nan nan nan nan nan nan nan nan nan nan nan nan nan nan nan nan nan nan nan nan nan nan nan nan nan nan nan nan nan nan nan nan nan nan nan nan nan nan nan nan nan nan nan nan nan nan nan nan nan -0 -0 -0 -0 nan nan nan nan nan nan nan nan nan nan nan nan nan nan nan nan nan nan nan nan nan nan nan nan nan nan nan nan nan nan nan nan
Wind_Speed
2 3 3 4 3 3 2 2 3 3 2 1 1 1 2 3 3 3 4 4 3 2 2 1 2 2 3 4 4 5 5 4 4 4 3 3 2 2 2 1 1 1 1 1 2 2 3 4 4 5 6 6 6 7 7 7 7 8 8 8 8 8 8 8 8 8 7 7 7 7 7 7 6 6 5 5 5 4 4 5 5 5 5 5 5 5
2 2 2 3 3 3 2 2 2 3 3 2 1 1 2 2 2 2 3 3 3 2 2 2 2 2 3 3 3 4 4 4 4 3 3 2 2 1 1 1 1 1 2 2 2 3 3 3 4 4 5 5 5 6 6 6 7 7 7 7 7 8 8 8 8 8 8 7 7 7 7 7 7 6 6 5 5 4 4 5 5 5 5 5 5 5
3 2 2 2 2 2 2 2 2 2 2 2 1 1 2 2 2 2 2 2 3 3 2 2 2 2 2 3 3 3 3 4 3 3 3 2 1 1 1 1 2 2 2 3 3 3 3 3 3 4 4 4 4 5 5 5 5 6 6 6 6 7 7 7 7 7 7 7 7 7 7 7 7 7 6 6 5 5 5 5 5 5 5 5 5 5
3 2 2 2 2 2 2 2 2 2 2 2 2 2 2 2 1 1 1 2 2 3 3 3 3 3 3 3 3 2 3 4 4 3 3 2 2 1 1 1 2 2 3 3 3 3 3 2 3 3 3 3 3 3 4 4 4 4 5 5 5 6 6 6 7 7 7 7 7 7 7 7 7 7 6 6 6 6 5 5 5 5 5 5 5 5
2 2 2 2 1 1 1 1 2 2 2 2 2 2 2 2 2 1 2 2 2 2 3 3 3 3 3 3 3 2 3 4 4 4 3 2 2 1 1 2 2 2 2 2 2 2 2 2 2 2 2 3 3 3 3 3 3 4 4 4 4 5 5 6 6 6 7 7 7 7 7 7 7 7 6 6 6 6 6 5 5 5 5 5 5 6
2 2 2 1 1 1 1 1 1 1 2 2 2 2 2 2 2 2 2 2 2 2 2 2 2 3 3 3 3 3 3 4 4 4 3 3 2 1 1 1 2 2 2 2 1 1 1 1 2 2 3 3 4 4 4 4 4 4 3 4 4 4 5 5 6 6 6 7 7 7 7 7 7 6 6 6 6 6 6 6 6 6 6 6 6 6
2 1 1 1 1 1 1 1 1 1 1 1 1 2 2 2 2 2 2 2 2 2 2 2 2 2 3 4 5 5 4 4 4 4 4 3 2 2 1 1 1 1 1 1 1 1 1 2 3 3 4 4 4 5 5 4 4 4 4 4 4 4 5 5 6 6 6 6 7 7 7 7 6 6 6 6 6 6 6 6 6 6 6 6 6 6
2 1 1 1 1 1 1 1 1 1 1 1 1 1 1 2 2 2 2 2 2 2 2 2 2 2 3 3 4 5 4 4 4 4 4 4 3 3 2 2 1 1 1 1 2 2 3 3 4 4 4 5 5 5 5 4 4 4 3 3 4 4 5 5 6 6 6 6 6 6 6 6 6 6 6 6 6 6 6 6 6 6 6 6 6 6
4 3 2 1 2 1 1 1 1 1 1 1 1 1 1 1 1 2 2 2 2 2 2 1 1 2 3 3 4 4 4 3 3 3 3 3 3 3 3 3 3 2 3 3 3 3 4 4 4 4 4 5 5 5 5 4 4 3 3 3 4 4 5 5 6 6 6 6 6 6 6 6 6 6 6 6 6 6 6 6 6 6 7 7 7 7
3 3 2 1 1 1 1 1 0 1 2 2 2 2 2 1 1 1 1 2 2 2 2 2 1 1 2 3 4 4 4 3 3 4 5 4 4 3 3 4 4 3 4 4 4 4 4 4 4 4 5 5 5 5 5 4 4 3 3 3 3 4 5 5 6 6 6 6 6 5 5 5 5 5 5 5 5 5 6 6 6 6 7 7 7 7
3 2 2 2 1 1 1 1 0 1 1 2 2 2 2 1 2 2 2 0 1 2 2 2 1 1 1 3 3 4 4 3 3 4 6 6 6 5 5 5 5 5 5 5 4 4 3 3 3 4 5 5 5 5 5 4 3 3 3 3 3 4 4 5 5 6 6 6 5 5 5 5 5 5 5 5 5 5 5 6 6 6 6 7 7 7
2 2 2 2 1 1 1 1 1 1 1 2 2 1 1 1 1 2 3 2 1 1 2 2 1 1 1 1 2 3 3 2 2 3 3 4 5 5 5 5 5 6 6 5 5 4 4 3 4 4 4 5 5 5 4 3 3 3 3 3 3 4 4 5 5 6 6 5 5 5 5 4 4 4 4 4 4 5 5 5 5 6 6 7 7 7
2 1 2 2 2 1 1 1 1 1 1 1 1 1 1 0 0 1 2 2 1 1 1 1 1 1 1 1 1 2 2 2 1 2 2 3 3 3 3 3 3 4 4 4 4 4 4 4 4 4 4 4 4 4 4 3 3 3 3 3 4 4 4 5 5 5 5 5 5 5 5 5 4 4 4 4 4 4 4 4 5 5 6 6 6 7
2 2 2 2 1 1 1 1 2 2 1 1 2 2 1 1 1 1 2 1 0 1 1 1 1 1 2 1 1 1 1 1 2 2 2 2 2 2 2 2 2 2 2 2 2 3 3 3 3 3 4 3 3 3 3 3 3 3 3 3 4 4 4 5 5 5 5 5 5 5 5 5 5 4 4 3 3 3 3 4 4 5 5 6 6 7
2 3 3 2 2 1 1 1 2 2 2 1 1 1 1 1 1 1 2 1 0 1 1 2 2 2 2 2 1 1 1 1 2 2 2 2 1 1 1 1 2 2 2 1 2 2 2 2 2 2 3 3 3 3 3 3 3 3 3 3 4 4 4 4 4 5 5 5 5 5 5 5 5 4 4 4 4 3 4 4 4 5 5 5 6 6
2 3 3 3 2 2 1 1 2 2 1 1 1 1 2 1 1 1 2 1 1 1 2 2 2 2 3 2 1 1 1 2 2 2 2 2 2 1 1 1 1 2 2 1 2 2 2 1 1 2 2 4 4 5 4 3 3 4 4 4 4 4 4 4 4 5 5 5 5 5 5 5 5 4 4 4 4 4 4 4 4 5 5 6 6 6
2 2 3 3 2 2 1 1 1 1 1 1 1 1 2 2 2 2 2 2 1 1 2 2 1 1 2 2 2 1 1 2 2 2 1 1 2 1 1 1 0 1 2 2 2 2 2 1 2 2 3 5 5 5 4 4 4 4 4 4 4 4 4 4 5 5 5 5 5 5 5 5 5 5 5 4 4 4 4 4 5 5 6 6 6 6
2 2 3 2 2 2 1 1 1 1 1 2 1 1 1 1 1 2 2 2 2 2 2 2 2 1 1 1 2 2 1 2 3 2 1 2 2 2 1 1 0 1 2 2 2 2 2 2 2 3 4 5 5 5 4 4 4 4 4 4 4 4 4 4 5 5 5 5 5 5 5 5 5 5 5 5 5 5 5 5 5 5 6 6 6 6
2 2 3 2 2 2 1 1 2 2 2 2 2 2 1 1 1 2 2 2 2 2 2 2 2 2 2 2 2 2 0 2 3 2 1 2 2 2 2 1 1 1 2 2 2 2 2 2 3 5 6 6 5 5 5 5 5 5 4 4 4 4 4 4 4 5 5 5 5 5 4 4 4 4 5 5 5 5 5 5 5 6 6 6 6 6
2 2 3 3 3 2 1 2 3 3 4 4 3 3 2 2 1 1 1 1 1 1 2 2 2 2 2 3 3 2 0 2 3 2 0 1 2 2 2 1 1 1 2 2 2 2 1 2 3 4 6 6 5 5 5 5 5 5 4 4 4 4 4 4 4 4 4 4 4 4 4 4 4 4 4 5 5 5 5 6 6 6 6 6 6 7
3 2 3 3 3 3 3 3 3 4 4 4 4 4 3 2 2 1 1 1 1 1 2 2 2 2 3 3 3 2 1 2 3 2 0 1 2 2 1 1 1 1 2 2 2 2 1 2 2 3 5 5 5 6 6 6 5 5 4 3 3 4 4 4 4 4 4 4 4 4 3 3 4 4 4 5 5 5 6 6 6 6 6 6 6 7
3 3 3 3 3 3 4 4 4 4 4 5 5 4 3 3 2 2 2 2 2 2 2 2 2 2 2 2 2 2 1 2 3 3 1 1 2 2 1 1 1 1 2 2 2 2 2 2 2 3 4 6 6 6 6 6 5 4 3 3 3 3 4 3 3 3 4 4 4 4 3 4 4 4 4 5 5 6 6 6 6 6 6 6 6 7
3 3 3 3 3 2 3 3 3 3 3 4 4 4 4 4 4 4 3 3 3 3 2 2 1 1 1 1 1 1 0 1 2 3 2 0 2 3 2 1 1 1 2 2 2 2 2 2 2 3 4 6 7 7 6 5 4 3 3 3 3 3 3 3 3 3 4 4 4 4 4 4 4 4 4 5 5 6 6 6 7 7 6 6 6 6
4 3 3 3 3 2 2 3 3 3 2 2 2 2 3 3 3 3 3 3 3 2 2 1 2 2 2 2 2 1 0 1 2 2 2 1 2 3 1 1 1 1 2 2 2 2 3 3 3 2 3 6 7 7 6 5 4 3 2 2 3 3 3 3 3 4 4 4 4 4 4 4 4 5 5 5 5 6 6 7 7 7 7 7 7 7
4 3 3 3 4 4 4 4 4 4 3 3 3 3 4 4 4 4 3 3 3 3 3 3 3 3 3 3 3 2 1 0 1 2 2 1 1 2 2 0 0 1 2 2 2 2 2 3 3 3 3 4 6 7 6 5 3 2 2 3 3 4 4 4 4 4 4 4 5 5 5 5 5 5 5 5 6 6 6 7 7 7 7 7 7 7
5 5 5 6 7 8 8 8 8 8 7 5 5 4 4 4 4 4 3 3 2 3 3 3 2 2 2 2 3 3 2 1 1 2 2 1 1 2 2 0 0 1 2 2 2 2 2 2 3 3 3 3 5 6 5 4 3 3 3 4 4 5 5 5 5 5 5 5 5 5 5 5 5 5 5 6 6 6 6 6 7 7 7 7 7 7
9 9 10 10 10 10 10 10 10 10 10 9 8 6 5 4 4 3 2 1 1 3 3 2 1 1 2 2 2 3 2 1 0 1 2 2 1 1 2 0 0 0 2 2 2 2 2 2 2 3 3 3 4 4 5 5 5 5 5 5 6 6 6 6 6 5 5 5 5 5 5 5 5 5 6 6 6 7 7 7 7 7 7 7 6 5
10 10 9 9 9 9 9 9 9 10 10 11 11 10 7 5 4 3 2 2 2 3 3 2 1 0 1 2 2 3 2 1 1 1 2 2 1 1 2 1 0 0 1 2 2 2 2 2 2 3 3 3 3 3 5 6 7 7 8 7 7 7 7 6 6 6 5 5 5 5 5 5 5 6 6 7 7 7 7 7 7 7 6 5 3 1
6 6 7 6 5 5 4 4 5 7 8 10 10 10 6 4 3 3 3 3 3 3 2 2 2 2 1 1 2 2 2 2 1 1 2 2 1 1 1 1 0 0 0 1 2 2 3 2 2 2 2 3 3 3 4 5 6 7 7 8 8 7 7 6 6 6 6 5 5 5 5 5 6 6 7 7 8 8 8 8 7 6 5 3 1 1
4 4 5 5 5 5 4 4 2 1 3 5 6 7 5 4 3 3 3 3 3 3 3 2 2 2 1 0 1 2 3 3 2 1 3 2 1 1 1 0 1 0 0 1 1 2 3 3 2 2 2 3 3 3 3 3 3 4 4 6 6 7 8 7 7 7 7 6 6 6 6 6 7 7 8 8 8 8 8 8 7 5 3 1 0 0
4 4 4 5 5 5 4 4 4 4 3 2 2 2 3 3 3 3 4 4 4 4 3 3 3 2 2 1 0 1 2 3 1 1 3 2 1 1 0 0 0 1 0 2 1 1 2 3 3 2 2 2 3 3 2 2 2 2 2 3 4 5 7 8 8 8 8 8 7 7 7 7 8 8 8 8 8 8 8 8 7 5 2 1 0 1
3 3 3 3 3 3 3 3 3 4 4 4 4 3 2 2 3 3 4 4 4 4 4 3 3 3 3 2 2 2 2 3 2 2 3 2 1 1 1 1 0 0 1 1 2 2 1 2 2 3 2 2 3 2 2 1 1 1 2 2 2 3 6 7 7 7 7 7 8 8 8 8 8 8 8 8 8 8 8 8 7 5 2 1 1 1
3 3 3 3 3 3 3 3 3 3 3 2 2 1 1 1 2 3 4 4 4 4 4 4 3 3 2 2 2 2 3 3 3 3 3 3 1 1 1 1 1 0 1 1 1 2 2 1 2 2 2 2 2 2 2 1 1 1 1 1 1 2 4 4 4 4 5 6 6 7 7 8 8 8 8 8 8 8 8 8 7 6 4 1 1 2
3 3 3 3 3 3 3 3 3 2 2 2 1 1 0 0 1 2 3 3 4 4 4 4 4 3 3 2 2 2 3 3 3 3 3 3 2 1 1 1 1 1 1 1 1 1 0 1 1 2 2 2 2 2 2 2 1 1 1 0 1 1 2 2 2 2 3 3 4 4 5 6 6 7 7 8 8 8 8 8 8 7 6 3 2 2
2 2 2 3 3 3 3 2 2 2 2 2 2 1 1 1 1 2 3 3 3 3 4 4 4 4 4 3 3 2 3 3 3 2 3 3 3 2 2 1 2 2 1 1 1 0 0 1 1 1 1 2 2 2 2 2 1 1 1 1 1 1 2 1 1 1 2 2 2 3 3 3 4 5 5 6 7 7 8 8 8 8 8 6 4 3
2 1 2 2 1 1 2 2 2 2 2 2 2 2 1 1 2 2 2 2 2 3 3 3 3 4 4 4 4 4 4 3 3 2 3 3 3 3 2 2 2 2 2 1 1 1 0 1 1 1 1 1 2 3 2 2 2 1 1 1 1 2 2 1 1 0 1 2 2 3 3 3 3 3 4 6 7 8 8 8 8 8 8 7 7 5
1 1 1 1 0 0 1 1 2 2 2 2 2 2 1 1 1 1 1 1 1 2 2 2 2 2 3 3 4 4 3 3 2 3 3 3 3 3 2 2 2 3 3 2 2 1 1 0 1 1 1 1 2 2 2 2 2 2 2 1 2 2 2 1 1 1 1 1 2 3 3 2 2 3 4 6 7 7 7 8 8 7 7 7 7 7
1 1 1 1 1 1 1 1 2 2 2 2 2 1 1 0 0 0 0 0 0 0 1 1 1 2 3 2 2 2 2 2 2 3 3 3 3 3 2 2 2 2 3 3 3 2 2 1 1 1 2 2 3 3 2 2 2 2 2 2 2 2 2 2 1 1 1 2 3 3 3 2 2 2 3 4 4 4 4 5 5 6 6 6 7 7
0 1 2 1 1 2 2 2 2 2 2 1 1 1 0 0 1 1 1 1 1 1 0 0 0 1 1 2 2 2 2 2 3 3 3 3 3 3 3 2 2 2 3 2 2 2 2 2 2 2 2 2 2 2 2 1 1 2 3 3 3 2 2 1 1 1 2 2 2 3 3 2 2 2 2 2 2 2 2 3 3 4 4 3 4 6
1 1 2 2 2 2 3 3 3 2 1 1 0 0 1 1 1 1 1 1 1 1 1 1 0 0 1 1 2 2 2 2 3 3 3 3 3 3 3 3 3 3 3 2 2 2 3 3 3 3 3 2 2 2 2 2 2 2 2 2 2 2 2 2 2 2 1 1 1 2 2 2 2 2 2 2 2 1 2 2 2 2 2 1 1 2
2 2 2 2 2 2 3 2 1 1 1 1 1 1 1 1 1 1 1 1 1 1 1 1 1 1 1 1 1 1 2 2 3 4 3 4 4 3 3 4 3 3 3 2 2 2 3 3 3 3 3 3 3 3 4 3 3 3 4 3 3 3 3 3 2 1 1 1 1 1 2 2 2 2 2 2 2 2 2 2 2 3 2 1 1 1
3 3 3 2 2 1 1 1 1 1 1 1 1 1 0 1 1 1 1 1 1 1 1 1 1 2 2 2 2 2 1 2 3 4 4 5 4 4 4 4 3 3 3 3 2 2 3 3 3 3 3 3 3 3 3 3 3 3 3 2 3 4 5 4 2 0 0 1 1 1 2 2 2 2 3 3 3 3 3 3 3 4 3 2 2 2
3 3 3 2 1 1 0 1 1 1 1 1 0 1 1 1 1 1 1 0 0 1 1 1 1 1 1 2 3 3 2 2 2 3 4 4 5 5 5 4 4 4 4 3 2 2 3 4 4 4 3 3 2 3 4 3 3 2 2 2 2 2 2 2 2 1 1 1 1 1 2 2 2 2 2 3 3 3 3 4 5 6 5 3 2 3
3 3 2 1 1 1 1 1 1 1 1 1 1 1 1 1 1 2 2 1 1 0 1 1 2 1 0 1 2 3 3 3 2 2 3 5 6 6 5 5 5 4 4 3 3 2 2 3 3 4 3 3 3 4 4 4 3 2 2 3 3 3 3 2 2 1 1 1 2 2 2 2 2 2 2 2 2 2 2 2 3 3 4 3 3 3
2 1 1 1 1 1 1 2 2 1 1 2 2 2 1 1 2 2 2 2 1 1 1 1 2 1 0 1 2 2 3 3 3 2 2 3 5 6 6 5 4 4 4 4 4 3 3 3 3 3 3 3 3 4 4 4 3 3 3 4 4 4 4 3 3 3 3 3 3 2 2 1 1 0 1 2 2 2 2 3 3 3 4 3 3 3
1 1 1 1 2 2 2 2 2 2 1 1 2 2 1 2 2 2 2 2 2 1 1 2 1 1 1 1 1 1 1 2 3 3 3 2 2 2 3 4 4 4 4 4 4 4 4 3 3 2 2 3 4 4 4 4 4 4 3 4 4 4 4 4 3 3 3 3 3 3 1 0 1 0 1 2 2 3 3 3 3 4 4 4 3 4
2 2 2 2 2 2 2 2 2 2 2 2 2 2 2 2 2 2 2 2 2 2 2 2 1 1 2 2 1 1 1 1 2 2 2 2 2 2 1 2 3 4 4 4 4 4 4 4 3 3 3 3 3 4 4 4 4 4 3 3 3 3 3 3 3 3 3 3 2 2 0 1 0 1 2 2 2 3 3 3 3 4 4 4 4 4
4 4 3 3 3 2 2 2 2 2 2 2 2 2 2 2 3 2 2 2 2 2 2 2 1 2 2 2 2 2 2 2 2 2 2 2 2 2 2 1 1 2 2 3 4 4 5 4 4 4 4 4 4 4 4 3 3 3 3 3 3 4 4 3 3 2 2 2 2 2 1 0 1 2 2 3 3 3 3 3 3 4 4 4 4 4
4 4 4 3 3 3 3 3 3 3 3 3 3 2 2 2 3 4 2 2 2 2 2 2 2 2 2 2 2 3 3 3 2 2 2 2 2 1 1 1 0 1 1 2 3 3 4 5 6 6 6 6 5 5 5 4 3 3 3 3 3 3 4 3 3 2 2 2 2 2 1 2 2 2 2 2 3 4 3 3 3 4 4 4 4 4
4 4 4 4 4 4 4 4 4 4 4 3 3 2 2 2 2 2 2 2 2 3 3 3 3 3 3 3 3 3 3 2 2 2 2 2 1 1 1 0 1 1 1 1 2 2 2 3 5 7 9 9 9 7 6 5 4 3 3 3 3 3 3 3 3 2 2 2 2 2 2 2 2 2 1 2 3 4 4 3 3 3 3 3 3 3
4 4 4 4 4 4 4 4 4 4 4 4 4 3 2 2 2 2 2 2 2 3 3 3 3 3 4 3 3 3 4 3 3 2 2 2 1 1 1 1 1 1 1 1 1 1 1 2 2 4 7 11 12 11 7 5 4 4 4 3 3 2 3 3 3 3 3 2 2 2 2 2 2 2 2 2 3 4 4 3 3 3 3 2 2 3
Wind_Direction
128 131 132 131 127 124 126 119 116 115 115 97 61 30 23 38 41 40 38 39 40 44 48 31 26 28 31 38 47 57 61 60 60 58 52 52 55 61 71 76 83 92 101 107 108 102 93 83 75 68 63 58 54 50 47 44 40 37 33 30 27 25 23 21 18 17 15 16 15 16 16 15 13 11 9 10 14 18 21 17 14 13 15 17 16 11
128 126 127 127 123 118 123 120 122 129 137 136 121 73 49 47 42 37 36 26 23 23 33 26 29 33 29 18 35 54 61 63 64 64 61 60 63 71 89 121 143 147 145 139 130 118 104 91 80 71 64 58 52 48 43 39 35 31 27 23 21 19 16 14 12 10 7 7 6 4 3 2 0 358 356 354 355 360 6 7 4 1 360 1 358 353
138 133 133 123 117 116 122 129 133 133 135 134 122 94 75 70 57 39 33 14 8 8 17 17 27 32 28 7 24 51 65 70 73 73 71 72 78 94 128 153 159 156 150 142 134 121 107 93 80 70 62 54 47 42 36 31 27 23 19 16 13 11 9 7 4 2 359 357 355 352 351 350 348 348 346 344 344 346 351 355 354 353 351 350 346 340
141 137 138 119 105 102 110 127 132 129 114 105 91 75 68 71 58 37 27 10 3 3 9 17 23 26 21 0 3 30 71 79 79 78 76 77 84 100 135 150 153 150 147 140 129 116 101 84 70 57 47 38 30 24 19 15 12 10 8 6 4 3 1 358 356 353 350 347 344 341 339 338 338 338 338 337 337 337 339 342 342 341 340 338 334 330
136 130 130 114 101 92 89 106 118 115 93 79 68 59 56 55 43 24 20 18 12 9 8 17 23 23 18 356 353 15 68 82 82 79 77 76 80 95 118 133 139 139 136 128 116 101 83 61 41 23 11 2 355 351 348 347 348 350 352 353 354 354 353 350 348 345 341 338 335 332 330 328 329 330 331 331 331 330 330 330 328 326 326 325 325 324
133 117 111 104 103 102 92 89 100 102 85 62 53 48 50 47 37 28 24 24 19 12 7 13 18 21 16 358 358 14 51 72 77 74 70 66 67 74 92 107 117 119 118 107 91 68 36 7 348 339 333 329 327 325 323 324 326 331 336 343 346 348 346 343 341 337 334 330 327 325 322 321 321 321 323 323 323 323 321 320 317 315 314 315 316 317
126 96 86 85 86 89 87 64 71 84 98 77 50 38 37 39 37 33 26 23 15 8 2 5 9 11 10 360 1 10 33 48 53 52 48 42 39 42 51 68 79 84 81 60 12 336 323 318 318 317 316 315 314 313 312 313 318 324 332 341 344 344 342 339 335 332 329 325 321 319 316 314 313 313 313 314 314 314 313 311 308 306 305 305 306 308
133 111 86 91 89 80 65 45 41 57 95 109 98 62 30 25 23 23 16 16 13 12 11 10 5 359 356 355 360 6 22 35 36 32 30 22 15 10 9 11 7 356 327 309 300 298 299 302 306 309 311 313 314 314 314 318 324 330 339 344 346 344 341 337 333 329 325 322 318 315 311 309 307 306 306 305 305 306 305 303 300 299 297 298 298 300
139 134 116 114 114 113 100 55 17 23 54 99 117 121 114 56 20 12 12 12 11 13 24 33 16 351 336 346 355 3 12 29 40 41 35 18 6 359 354 356 347 327 303 294 292 290 293 299 307 314 318 322 325 326 328 332 338 344 349 350 347 344 339 335 332 327 323 320 316 313 310 307 304 302 301 300 299 298 297 296 295 294 293 294 295 296
131 129 122 112 110 117 126 135 31 9 32 72 93 107 122 119 104 64 35 6 358 2 20 41 43 356 328 339 351 2 8 17 36 47 45 33 24 18 8 9 357 335 312 304 298 295 296 307 318 328 334 336 337 339 339 343 347 352 352 351 346 341 337 333 329 325 322 319 315 312 309 306 303 301 299 297 295 294 292 292 291 291 291 292 292 293
120 114 109 100 83 74 94 115 104 39 42 63 64 61 63 84 112 126 132 153 333 346 5 20 30 17 336 339 348 358 7 12 21 26 28 26 24 22 20 18 10 358 343 335 327 320 317 327 336 344 347 345 342 340 340 344 344 345 344 341 337 334 331 328 326 323 321 319 316 313 310 306 303 300 297 295 293 291 290 290 289 289 289 289 290 290
125 117 105 107 99 84 72 72 56 41 50 66 64 49 19 14 85 130 145 162 191 321 339 344 350 358 340 336 343 352 5 15 13 7 7 13 15 15 14 14 11 7 0 357 354 352 350 356 358 357 358 351 343 336 332 331 329 328 326 325 324 324 324 324 323 322 321 321 319 316 313 308 304 300 295 293 292 291 290 289 288 287 287 287 286 286
114 108 101 100 100 100 100 92 77 60 59 96 127 152 193 259 94 109 122 137 162 256 295 325 334 332 312 322 345 359 10 17 11 3 359 4 6 7 6 5 3 0 360 360 356 354 358 5 5 2 2 353 340 329 320 313 310 309 308 312 315 318 321 322 321 321 321 320 318 317 315 312 308 303 298 296 293 292 292 290 288 287 285 284 283 283
109 98 97 99 100 102 111 120 128 140 164 167 170 171 173 155 109 97 96 86 353 285 283 24 4 335 319 332 355 22 43 36 24 12 3 354 354 359 8 356 346 343 358 352 339 331 344 0 1 356 352 344 333 318 302 296 293 294 296 303 309 315 320 322 321 320 319 317 315 313 313 313 311 310 308 306 305 304 301 300 296 291 287 283 280 279
131 123 123 134 146 156 155 138 144 157 181 181 165 135 102 84 79 85 94 89 356 324 12 32 15 347 327 328 345 22 60 62 49 31 359 330 322 343 34 1 338 334 357 338 309 300 319 344 340 323 320 311 297 284 277 267 273 284 290 299 307 315 321 322 322 319 316 313 311 309 310 311 312 312 312 311 309 309 308 306 302 297 291 286 282 279
135 132 141 153 165 181 191 159 151 154 165 162 137 118 113 111 100 95 105 117 98 28 47 48 26 353 326 326 346 34 60 72 70 55 9 318 309 328 68 34 348 326 328 309 285 280 297 303 288 278 280 279 280 281 284 274 277 287 294 301 309 315 321 323 321 318 314 310 307 306 306 308 309 309 308 306 304 304 304 303 300 297 294 291 289 287
123 127 138 147 166 189 208 164 150 145 142 135 119 110 118 130 127 119 113 119 104 76 73 91 89 8 311 317 330 3 59 84 85 75 35 312 304 320 57 71 344 301 305 288 274 266 273 275 273 269 266 271 277 286 294 294 295 297 300 304 310 314 320 323 321 318 313 309 306 303 302 303 304 305 303 300 298 297 295 294 293 293 293 295 297 296
125 131 134 145 162 178 176 162 156 146 131 126 118 99 79 84 97 105 108 113 110 106 104 112 131 158 188 275 290 300 40 99 93 78 33 306 298 314 20 66 97 271 287 280 271 262 255 258 261 267 273 283 290 297 305 305 305 304 304 307 312 318 324 325 323 319 314 308 305 302 300 300 301 301 301 298 294 291 288 285 284 285 287 291 294 296
148 148 146 154 160 164 162 171 169 160 150 150 139 121 88 62 62 73 82 99 115 127 131 132 149 169 178 223 253 268 194 107 96 80 32 292 290 310 1 31 31 294 279 271 267 262 259 262 270 276 283 292 300 306 310 310 308 307 307 312 318 327 332 331 327 322 316 310 305 302 300 300 301 300 298 297 294 289 286 282 279 278 280 283 286 288
158 168 171 158 147 144 166 198 191 177 166 155 137 120 112 97 77 70 80 91 106 121 127 136 162 190 201 230 252 265 217 95 86 78 31 280 280 295 347 26 25 320 289 274 267 262 264 271 277 282 287 294 301 307 311 310 310 310 311 319 329 337 340 337 333 327 321 315 311 309 308 309 309 308 307 303 299 295 290 285 281 278 276 276 278 280
158 187 204 170 148 146 175 200 199 184 162 139 122 112 117 113 106 103 121 115 110 106 109 135 174 198 198 223 243 254 187 103 96 91 45 300 290 291 323 31 43 346 296 282 276 271 276 277 277 280 282 296 303 308 310 309 309 310 317 330 342 347 346 342 338 333 327 324 322 323 325 323 322 320 317 312 306 302 297 293 290 286 281 277 275 274
155 184 204 182 164 159 168 180 182 174 154 136 130 130 138 137 139 149 162 148 144 148 159 185 198 199 190 219 238 243 164 123 122 123 101 338 299 291 307 31 53 8 285 278 280 288 294 285 280 282 289 303 309 311 310 307 306 309 322 339 348 349 347 345 340 334 329 327 327 328 331 326 322 319 316 312 308 305 304 303 302 300 296 289 281 275
139 157 176 183 183 172 155 151 155 158 151 142 145 152 159 153 156 163 171 163 159 161 171 188 199 211 226 249 265 279 138 131 126 121 110 146 276 280 306 11 36 347 271 270 283 301 314 301 290 292 303 315 317 315 311 306 304 310 325 340 345 344 340 337 332 327 323 322 322 324 322 319 316 313 311 308 306 305 306 308 309 309 309 303 295 286
120 135 154 174 183 174 137 134 139 146 142 127 122 124 129 128 130 134 141 139 135 129 118 77 37 12 344 322 316 319 338 98 109 111 115 176 250 268 297 12 23 311 271 269 284 311 323 309 302 303 316 324 324 321 315 308 306 310 326 332 332 330 327 325 321 317 314 315 315 315 314 313 311 310 309 307 306 305 304 305 306 307 309 308 306 302
118 131 146 161 161 152 135 137 141 143 135 115 103 99 99 96 93 89 83 82 84 81 73 54 34 9 343 338 330 319 307 17 104 117 124 166 249 272 286 354 80 266 273 280 296 322 329 311 308 312 323 328 329 328 322 316 314 317 322 324 323 322 319 317 314 311 309 310 310 310 311 311 312 313 313 311 308 306 303 301 300 299 299 302 306 309
127 136 144 146 143 140 135 137 140 140 135 126 119 114 110 102 94 84 70 64 67 71 70 58 34 348 326 330 317 303 294 321 113 126 132 143 233 281 287 283 149 244 277 289 307 333 338 313 309 313 321 324 329 331 331 331 336 343 339 334 330 326 322 318 314 310 308 308 308 309 311 314 316 319 319 318 314 310 305 301 297 293 292 293 299 308
132 136 139 140 139 138 137 139 139 138 135 133 132 132 124 112 101 94 85 91 93 91 90 86 53 324 322 320 300 286 288 294 176 145 134 124 138 271 279 282 170 250 278 289 302 318 328 313 309 309 313 312 319 331 349 1 8 10 2 354 345 337 330 323 317 313 309 308 309 311 314 318 322 324 325 322 319 315 310 304 299 294 290 288 294 310
132 136 139 139 140 141 143 144 146 146 144 143 142 140 133 120 116 128 171 170 130 105 105 121 142 207 292 286 281 282 291 282 236 170 134 114 138 250 263 278 297 257 269 291 301 313 325 312 303 301 303 305 311 330 358 13 19 18 12 5 357 349 341 333 325 319 315 313 313 315 319 323 325 327 327 325 322 318 313 308 303 297 292 289 296 351
110 123 124 117 113 113 119 130 145 155 157 157 156 153 146 134 139 158 181 159 130 113 119 142 157 171 202 261 287 298 299 283 251 174 127 113 161 251 265 300 332 315 286 323 328 330 333 314 298 293 298 310 318 332 348 10 17 18 13 9 6 4 359 350 342 335 330 326 324 323 324 325 326 327 326 325 322 318 314 310 306 302 296 296 309 57
41 54 58 44 39 39 40 32 33 81 166 172 169 164 153 145 148 156 156 143 132 128 142 153 159 159 156 22 336 322 302 286 259 166 126 126 183 254 281 325 323 317 66 49 12 348 329 313 300 291 295 314 321 327 335 357 5 8 6 8 11 14 14 10 4 357 350 343 337 332 328 327 326 325 324 323 320 317 313 309 306 303 301 307 317 124
24 28 26 18 15 15 19 19 15 9 5 14 56 92 119 129 137 141 140 141 140 141 149 158 161 156 142 118 85 305 286 279 254 157 125 133 182 233 196 189 288 300 77 102 88 13 317 306 305 307 318 322 320 319 323 343 356 1 357 4 11 16 19 17 13 6 359 351 344 337 332 328 326 324 323 320 318 315 311 307 304 302 302 296 267 247
35 34 27 13 8 10 16 17 14 12 10 20 33 49 76 113 133 142 145 148 147 144 146 154 158 159 154 157 171 204 247 261 239 179 132 131 152 197 154 142 136 329 332 103 123 141 203 275 294 308 327 324 318 312 311 332 359 7 4 9 5 3 10 12 10 6 358 350 344 338 333 330 327 324 322 319 316 313 310 307 303 300 294 273 245 247
42 34 23 13 13 16 18 16 13 9 4 5 13 31 62 110 144 153 156 157 151 146 143 149 154 160 164 175 193 216 244 256 236 199 150 132 131 154 142 123 108 47 356 38 89 130 165 225 273 298 314 312 309 307 309 327 1 20 18 18 352 335 346 358 360 355 345 341 337 334 331 330 328 326 323 321 317 313 309 306 302 297 288 257 217 221
42 32 22 15 12 10 9 9 6 1 347 333 327 325 55 153 167 170 170 167 162 156 150 152 155 159 163 178 210 240 260 261 247 214 148 131 131 143 141 138 135 124 74 45 45 59 137 235 269 297 309 310 309 307 307 315 334 355 7 353 293 295 310 332 338 334 325 329 326 323 324 326 326 325 324 322 318 314 309 306 301 298 296 282 246 218
46 34 22 16 10 4 356 353 348 338 319 298 285 268 228 202 192 191 189 185 180 173 165 162 161 161 162 170 191 222 249 254 243 207 143 135 132 134 135 168 167 150 123 117 101 79 304 273 263 269 305 313 312 307 298 292 297 298 271 231 231 248 267 286 304 314 315 318 313 308 309 313 315 317 317 317 316 315 313 310 307 305 304 299 290 269
53 29 10 12 9 359 339 329 321 309 294 278 265 252 231 211 203 201 199 197 195 193 190 181 173 167 165 168 178 198 225 232 221 188 154 143 134 130 139 186 179 157 136 142 146 151 171 263 259 250 257 294 299 298 294 298 305 309 291 260 251 251 255 245 240 265 306 306 301 297 297 300 302 302 304 312 316 318 319 318 317 314 311 307 302 295
61 2 320 333 339 327 296 295 289 279 272 268 264 257 236 220 210 205 198 198 204 208 211 210 204 196 189 179 183 194 210 207 194 176 163 149 137 130 144 179 181 166 152 154 158 159 146 232 288 281 245 239 250 269 288 311 326 332 318 301 290 285 281 276 240 183 226 267 276 280 284 287 291 296 300 311 318 324 325 324 323 321 320 317 312 307
69 291 282 267 236 214 232 255 257 253 250 259 269 271 249 219 200 176 114 119 136 184 211 224 237 241 236 226 216 207 199 178 174 172 168 154 138 131 143 159 181 186 176 166 160 155 150 186 250 267 260 244 243 250 271 300 315 312 298 292 286 282 281 284 267 214 216 251 269 278 282 288 296 306 307 317 327 334 330 324 322 324 329 328 323 318
204 247 259 243 220 204 206 222 231 234 233 248 257 256 203 133 111 99 91 100 108 116 141 185 238 264 272 274 260 241 211 184 177 176 171 160 148 141 148 160 184 199 196 176 162 157 166 190 210 225 240 252 257 259 264 268 272 279 289 299 300 292 277 271 254 238 229 250 275 287 295 303 314 316 308 319 331 336 326 315 314 321 338 342 334 325
210 230 243 234 216 204 206 217 219 218 207 229 250 61 86 79 74 74 78 95 101 105 111 121 136 261 293 294 279 262 233 197 184 180 176 175 165 156 156 169 179 186 185 178 171 170 180 199 214 224 229 242 255 264 266 259 251 260 292 309 308 300 288 269 251 241 231 238 261 279 290 299 302 299 294 297 297 292 286 286 293 303 324 350 344 329
210 229 242 238 226 214 213 214 203 179 160 133 75 49 51 62 65 61 55 57 60 66 69 64 44 5 342 320 299 277 251 219 199 190 187 189 182 174 169 177 177 172 166 174 181 187 190 204 220 233 238 244 257 267 269 263 263 269 281 284 284 282 284 279 271 251 232 242 239 245 261 283 294 297 293 289 276 261 251 253 264 273 282 223 172 171
221 228 233 230 227 225 224 200 143 127 115 93 86 92 150 134 114 97 68 30 9 9 28 40 32 6 342 328 316 300 271 239 219 208 201 197 192 188 186 188 183 173 164 171 190 207 209 211 219 229 234 235 248 261 267 263 261 261 262 267 282 294 297 292 293 308 246 258 250 242 245 271 284 290 289 287 280 270 260 250 253 259 262 233 195 182
225 226 224 214 205 189 146 105 105 103 94 87 129 212 202 170 143 128 116 113 308 330 20 50 59 49 334 314 312 310 301 278 247 227 215 206 201 199 199 199 191 179 167 173 193 214 219 216 221 224 220 213 226 249 266 268 264 254 242 245 268 294 303 294 291 278 224 234 235 234 237 250 259 265 272 275 275 275 272 266 265 265 263 246 220 210
221 223 215 194 164 134 115 141 156 156 146 176 208 222 213 173 145 132 127 147 182 201 76 77 82 85 63 290 295 302 306 305 290 261 231 217 210 206 206 204 197 188 176 179 188 200 209 218 223 221 209 206 223 243 258 262 260 254 242 237 237 238 243 260 273 282 275 265 257 246 234 238 246 260 275 274 273 274 277 272 272 272 268 252 232 224
202 202 185 165 153 156 179 195 189 179 173 196 212 219 201 175 156 147 144 154 163 158 126 108 95 78 315 277 285 296 307 313 316 310 284 238 222 213 205 201 196 191 188 193 196 198 201 215 219 214 197 205 222 237 249 254 258 259 256 251 248 245 241 251 264 278 284 284 280 270 249 229 224 275 291 282 276 271 265 265 267 269 269 258 244 235
185 192 192 181 183 190 202 194 181 170 184 216 228 222 192 170 162 159 160 157 157 151 142 125 125 150 237 259 273 292 307 314 319 323 322 310 285 240 207 200 196 194 196 204 207 209 212 214 208 201 196 215 228 234 237 242 248 255 259 259 259 259 258 261 262 263 264 270 272 270 256 171 131 223 273 276 274 269 260 251 248 251 257 255 248 241
205 208 210 205 204 205 207 188 175 174 199 223 229 220 187 161 157 164 171 162 153 145 135 128 145 183 216 227 229 233 258 281 293 303 308 312 312 307 281 227 207 200 197 205 214 221 229 226 219 210 211 228 239 242 238 234 236 244 252 256 258 260 261 260 255 248 241 248 255 259 258 69 38 288 274 277 277 273 265 253 245 241 243 244 243 242
213 215 215 211 209 210 209 193 183 189 209 224 229 220 189 173 175 178 173 164 155 146 141 143 170 202 222 226 222 219 227 239 248 257 269 280 287 294 305 304 238 203 202 210 219 227 235 235 230 224 221 229 241 249 249 239 236 239 245 250 255 259 262 260 253 240 229 235 236 231 198 212 257 271 280 287 286 279 270 263 254 247 240 236 235 236
212 214 213 210 210 213 215 204 197 200 213 224 229 225 203 198 199 197 179 164 157 158 165 179 195 212 228 232 229 227 231 234 234 233 237 247 259 276 301 327 108 170 204 216 223 228 236 236 232 227 223 226 235 246 253 249 244 242 244 247 251 256 262 262 257 244 231 232 228 218 198 210 220 231 252 278 283 280 276 270 262 254 246 238 232 230
211 212 211 209 211 216 218 211 207 209 215 221 224 222 210 201 198 193 175 165 165 173 184 193 202 214 230 232 230 227 226 228 228 229 232 234 236 241 263 188 152 164 204 217 222 226 234 237 232 226 222 221 224 232 244 245 245 245 244 245 245 249 257 260 258 249 235 233 227 219 212 224 225 221 225 258 272 278 279 273 266 259 255 248 240 235
215 214 211 211 215 219 219 214 212 213 218 220 221 220 211 198 186 177 171 174 183 192 200 201 206 214 229 235 233 229 223 223 225 229 231 226 214 200 197 170 160 165 200 227 231 230 230 242 245 238 229 221 218 218 226 231 235 239 243 241 237 235 244 252 255 253 246 237 224 214 213 232 238 236 228 247 265 276 280 275 269 263 262 261 253 247